Date String (YYYY-MM-DD hh:mm:ss) UTC,Instrument flags,absolute air pressure of the measurement (hPa),sample flow rate (lpm),inlet stack bypass flow (lpm),air temperature of the measurement (°C),ambient temperature measured by the external sensor (°C),aerosol sample conditioner tube jacket temperature (°C),OPC LED temperature (°C),internal box temperature (°C),relative humidity of the measurement (%),span deviation,mass concentration of particles derived from Lorenz-Mie calculation of OPC scattering (μg/m³),mass concentration of particles derived from Lorenz-Mie calculation of OPC scattering (μg/m³),mass concentration of particles derived from Lorenz-Mie calculation of OPC scattering (μg/m³)
DateTimeUTC,F1_M11,P_M11,Q1_M11,Q2_M11,T1_M11,T2_M11,T3_M11,T4_M11,T5_M11,U1_M11,ZSPAN_M11,X0_M11,X2_M11,X1_M11
2024-04-17 09:00:00,SystemResetWarning,0825.9,5.00,000.00,025.8,024.9,000.0,034.3,027.6,013.7,0000.0,0008.02,0002.89,0001.85
2024-04-17 09:01:00,SystemResetWarning,0825.9,5.00,000.00,025.8,024.9,000.0,034.3,027.5,013.8,0000.0,0007.80,0002.85,0001.83
2024-04-17 09:02:00,SystemResetWarning,0825.9,5.01,000.00,025.8,024.9,000.0,034.3,027.6,013.9,0000.0,0007.74,0002.85,0001.82
2024-04-17 09:03:00,SystemResetWarning,0825.9,5.00,000.00,025.8,024.9,000.0,034.2,027.6,014.1,0000.0,0007.28,0002.85,0001.81
2024-04-17 09:04:00,SystemResetWarning,0825.9,5.00,000.00,025.8,024.9,000.0,034.2,027.6,014.1,0000.0,0006.50,0002.86,0001.80
2024-04-17 09:05:00,SystemResetWarning,0825.9,5.01,000.00,025.8,024.9,000.0,034.2,027.6,014.2,0000.0,0007.02,0002.82,0001.79
2024-04-17 09:06:00,SystemResetWarning,0825.9,5.00,000.00,025.8,024.9,000.0,034.2,027.6,014.2,0000.0,0007.10,0002.74,0001.76
2024-04-17 09:07:00,SystemResetWarning,0825.9,5.01,000.00,025.8,024.9,000.0,034.2,027.6,014.1,0000.0,0007.20,0002.77,0001.76
2024-04-17 09:08:00,SystemResetWarning,0825.9,5.00,000.00,025.8,024.9,000.0,034.2,027.6,014.1,0000.0,0006.46,0002.79,0001.76
2024-04-17 09:09:00,SystemResetWarning,0825.9,5.00,000.00,025.8,024.9,000.0,034.2,027.6,014.1,0000.0,0006.00,0002.85,0001.75
2024-04-17 09:10:00,SystemResetWarning,0825.8,5.00,000.00,025.8,024.9,000.0,034.2,027.6,014.1,0000.0,0006.70,0002.89,0001.75
2024-04-17 09:11:00,SystemResetWarning,0825.9,5.00,000.00,025.8,024.9,000.0,034.2,027.6,014.0,0000.0,0006.89,0002.90,0001.78
2024-04-17 09:12:00,SystemResetWarning,0825.9,5.00,000.00,025.8,024.9,000.0,034.2,027.6,014.1,0000.0,0006.66,0002.83,0001.78
2024-04-17 09:13:00,SystemResetWarning,0825.9,4.99,000.00,025.8,024.9,000.0,034.2,027.6,014.0,0000.0,0006.38,0002.75,0001.78
2024-04-17 09:14:00,SystemResetWarning,0825.9,5.00,000.00,025.8,024.9,000.0,034.2,027.6,014.0,0000.0,0006.59,0002.74,0001.78
2024-04-17 09:15:00,SystemResetWarning,0826.0,5.00,000.00,025.8,025.0,000.0,034.2,027.6,014.0,0000.0,0006.70,0002.74,0001.79
2024-04-17 09:16:00,SystemResetWarning,0826.0,5.01,000.00,025.8,025.0,000.0,034.2,027.6,014.1,0000.0,0006.30,0002.82,0001.80
2024-04-17 09:17:00,SystemResetWarning,0826.0,5.01,000.00,025.8,025.0,000.0,034.2,027.6,014.1,0000.0,0006.07,0002.85,0001.80
2024-04-17 09:18:00,SystemResetWarning,0825.9,5.01,000.00,025.8,025.0,000.0,034.2,027.6,014.1,0000.0,0005.83,0002.78,0001.79
2024-04-17 09:19:00,SystemResetWarning,0825.9,5.00,000.00,025.8,025.0,000.0,034.2,027.6,014.0,0000.0,0005.97,0002.80,0001.77
2024-04-17 09:20:00,SystemResetWarning,0825.9,4.99,000.00,025.8,025.1,000.0,034.2,027.6,013.9,0000.0,0005.84,0002.73,0001.78
2024-04-17 09:21:00,SystemResetWarning,0825.9,5.00,000.00,025.8,025.1,000.0,034.2,027.7,013.9,0000.0,0005.45,0002.72,0001.79
2024-04-17 09:22:00,SystemResetWarning,0825.9,5.00,000.00,025.8,025.1,000.0,034.2,027.7,013.9,0000.0,0005.35,0002.77,0001.78
2024-04-17 09:23:00,SystemResetWarning,0825.9,5.00,000.00,025.8,025.1,000.0,034.2,027.7,013.9,0000.0,0005.39,0002.79,0001.78
2024-04-17 09:24:00,SystemResetWarning,0825.9,5.00,000.00,025.8,025.1,000.0,034.2,027.7,013.9,0000.0,0005.73,0002.84,0001.78
2024-04-17 09:25:00,SystemResetWarning,0825.9,5.01,000.00,025.8,025.1,000.0,034.2,027.7,014.0,0000.0,0006.40,0002.92,0001.78
2024-04-17 09:26:00,SystemResetWarning,0825.9,5.00,000.00,025.8,025.1,000.0,034.2,027.7,014.0,0000.0,0006.22,0002.90,0001.79
2024-04-17 09:27:00,SystemResetWarning,0825.8,5.01,000.00,025.9,025.2,000.0,034.3,027.7,014.0,0000.0,0006.07,0002.84,0001.79
2024-04-17 09:28:00,SystemResetWarning,0825.9,5.00,000.00,025.9,025.2,000.0,034.3,027.7,013.9,0000.0,0006.10,0002.83,0001.80
2024-04-17 09:29:00,SystemResetWarning,0825.9,5.00,000.00,025.9,025.2,000.0,034.3,027.7,013.9,0000.0,0006.05,0002.81,0001.79
2024-04-17 09:30:00,SystemResetWarning,0825.9,5.00,000.00,025.9,025.2,000.0,034.3,027.7,013.9,0000.0,0006.07,0002.81,0001.80
2024-04-17 09:31:00,SystemResetWarning,0825.9,5.00,000.00,025.9,025.2,000.0,034.3,027.7,014.0,0000.0,0006.22,0002.87,0001.82
2024-04-17 09:32:00,SystemResetWarning,0825.9,5.01,000.00,025.9,025.2,000.0,034.3,027.7,013.9,0000.0,0006.24,0002.89,0001.82
2024-04-17 09:33:00,SystemResetWarning,0825.9,5.01,000.00,025.9,025.2,000.0,034.3,027.7,013.8,0000.0,0005.95,0002.82,0001.83
2024-04-17 09:34:00,SystemResetWarning,0825.9,4.99,000.00,025.9,025.2,000.0,034.3,027.8,013.9,0000.0,0005.96,0002.84,0001.84
2024-04-17 09:35:00,SystemResetWarning,0825.9,4.99,000.00,025.9,025.2,000.0,034.3,027.7,013.9,0000.0,0006.13,0002.90,0001.85
2024-04-17 09:36:00,SystemResetWarning,0825.9,5.01,000.00,025.9,025.2,000.0,034.3,027.7,013.8,0000.0,0006.75,0002.83,0001.84
2024-04-17 09:37:00,SystemResetWarning,0825.9,5.01,000.00,025.9,025.2,000.0,034.3,027.7,013.9,0000.0,0006.80,0002.84,0001.83
2024-04-17 09:38:00,SystemResetWarning,0825.9,5.00,000.00,025.9,025.2,000.0,034.3,027.8,013.9,0000.0,0006.76,0002.83,0001.83
2024-04-17 09:39:00,SystemResetWarning,0825.9,5.00,000.00,025.9,025.2,000.0,034.3,027.8,014.0,0000.0,0006.75,0002.84,0001.82
2024-04-17 09:40:00,SystemResetWarning,0825.9,4.99,000.00,025.9,025.2,000.0,034.3,027.8,014.0,0000.0,0007.26,0002.93,0001.84
2024-04-17 09:41:00,SystemResetWarning,0825.9,4.99,000.00,025.9,025.2,000.0,034.3,027.8,014.1,0000.0,0007.63,0002.90,0001.84
2024-04-17 09:42:00,SystemResetWarning,0825.9,5.00,000.00,025.9,025.2,000.0,034.3,027.8,014.0,0000.0,0007.54,0002.84,0001.83
2024-04-17 09:43:00,SystemResetWarning,0825.9,5.01,000.00,025.9,025.2,000.0,034.3,027.7,013.9,0000.0,0007.74,0002.78,0001.81
2024-04-17 09:44:00,SystemResetWarning,0826.0,5.01,000.00,025.9,025.2,000.0,034.3,027.7,013.9,0000.0,0008.08,0002.75,0001.79
2024-04-17 09:45:00,SystemResetWarning,0826.0,4.99,000.00,025.9,025.2,000.0,034.3,027.7,013.9,0000.0,0008.17,0002.78,0001.78
2024-04-17 09:46:00,SystemResetWarning,0826.0,4.99,000.00,025.9,025.2,000.0,034.3,027.7,013.9,0000.0,0008.11,0002.73,0001.77
2024-04-17 09:47:00,SystemResetWarning,0826.0,5.00,000.00,025.9,025.2,000.0,034.3,027.8,013.8,0000.0,0007.06,0002.67,0001.76
2024-04-17 09:48:00,SystemResetWarning,0826.0,5.00,000.00,025.9,025.2,000.0,034.4,027.8,013.8,0000.0,0006.75,0002.62,0001.74
2024-04-17 09:49:00,SystemResetWarning,0826.0,5.00,000.00,026.0,025.2,000.0,034.4,027.8,013.8,0000.0,0006.75,0002.62,0001.73
2024-04-17 09:50:00,SystemResetWarning,0826.0,5.00,000.00,026.0,025.3,000.0,034.4,027.8,013.9,0000.0,0006.74,0002.61,0001.72
2024-04-17 09:51:00,SystemResetWarning,0826.0,5.00,000.00,026.0,025.3,000.0,034.4,027.8,013.8,0000.0,0006.39,0002.59,0001.72
2024-04-17 09:52:00,SystemResetWarning,0826.0,5.00,000.00,026.0,025.3,000.0,034.4,027.8,014.0,0000.0,0005.51,0002.57,0001.73
2024-04-17 09:53:00,SystemResetWarning,0826.1,5.00,000.00,026.0,025.3,000.0,034.4,027.8,014.0,0000.0,0005.57,0002.57,0001.71
2024-04-17 09:54:00,SystemResetWarning,0826.1,5.00,000.00,026.0,025.3,000.0,034.4,027.8,014.1,0000.0,0005.53,0002.61,0001.70
2024-04-17 09:55:00,SystemResetWarning,0826.1,5.00,000.00,026.0,025.3,000.0,034.4,027.8,013.9,0000.0,0004.87,0002.66,0001.70
2024-04-17 09:56:00,SystemResetWarning,0826.2,5.00,000.00,026.0,025.3,000.0,034.4,027.8,013.8,0000.0,0006.32,0002.64,0001.71
2024-04-17 09:57:00,SystemResetWarning,0826.2,5.00,000.00,026.0,025.3,000.0,034.4,027.8,013.8,0000.0,0006.50,0002.64,0001.73
2024-04-17 09:58:00,SystemResetWarning,0826.2,5.00,000.00,026.0,025.3,000.0,034.4,027.8,014.1,0000.0,0006.72,0002.68,0001.73
2024-04-17 09:59:00,SystemResetWarning,0826.2,5.00,000.00,026.0,025.3,000.0,034.4,027.8,014.3,0000.0,0006.80,0002.68,0001.73
